Location: Unspecified
(0.0000°N, 0.0000°E)
Time: 09:20:01
(UTC+00:00)

Explorer 11/Cluster Stage 4 - Pass Details

Date: 21 July 2020
Orbit: 467 x 1259 km, 28.8° (Epoch: 03 August)

Event Time Altitude Azimuth Distance (km) Brightness Sun altitude
Rises 18:43:57 0° 248° (WSW) 4,109 11.1 -8.8°
Reaches altitude 10° 18:49:23 10° 218° (SW) 3,221 9.9 -10.1°
Maximum altitude 18:52:05 12° 199° (SSW) 3,095 9.6 -10.7°
Drops below altitude 10° 18:54:48 10° 179° (S) 3,228 9.5 -11.3°
Enters shadow 18:59:11 - 154° (SSE) 3,901 9.7 -12.3°
Sets 19:00:17 0° 150° (SSE) 4,131 - -12.6°
